STARLINK-2121 (47399 NORAD) Tracking and Keplerian Element Data

This shows tracking and keplerian element data for the satellite.

Feedback or suggestion? Click here.




ElementValue
Catalog47399
NameSTARLINK-2121
Epoch Orbit176
Epoch Day105.91667824
Epoch Year2021
RAAN153.3557
Inclination53.0524
Eccentricity0.0001337
Argument of Perigee87.2918
Mean Anonmoly100.731
Mean Motion15.36323357
Decay Rate-0.01077397
L11 47399U 21005BC 21105.91667824 -.01077397 00000-0 -32681-1 0 9999
L22 47399 53.0524 153.3557 0001337 87.2918 100.7310 15.36323357 1765

Live tracking and technical data element details for STARLINK-2121 (NORAD 47399). STARLINK-2121 can be tracked NOW for your location showing map with azimuth and elevation plus other details from your city location.

Track the satellite on the map from your city or location and see movement details for azimuth, elevation, latitude, longitude, range, height, and movement on the map or in text.







IsCatalogInMostPopularTable: catalog: 47399, numindb: 16
Update: records affected: 1



GetName: 47399 STARLINK-2121

Hit Count: updated at: Fri, 16 Apr 2021 10:44:25 GMT